User: anonymous   Login
Location: Gollag?dem
(16.8053°N, 80.8024°E)
Time: 16:27:50
(UTC+00:00)
Language:

Cosmos 1709 Rocket - Orbit

View from above orbital plane
View from above orbital plane
View from above satellite
View from above satellite

Ground track
Ground track

The orbit data is extracted from the following two-line orbital elements,

1 16369U 85116B   20293.39799288  .00000089  00000-0  75202-4 0  9994
2 16369  82.9381 160.7555 0036230 346.0039 187.3676 13.76866543749889
Epoch (UTC): 19 October 2020 09:33:06
Eccentricity: 0.0036230
inclination: 82.9381°
perigee height: 948 km
apogee height: 1001 km
right ascension of ascending node: 160.7555°
argument of perigee: 346.0039°
revolutions per day: 13.76866543
mean anomaly at epoch: 187.3676°
orbit number at epoch: 74988

The dashed part of the orbit path shows where the satellite is in the earth's shadow,  

DLR